Regional Weather Roundup
Issued by NWS

Home | Current Version | Previous Version | Graphics & Text | Print | Product List | Glossary On
Versions: 1 2 3 4 5 6 7 8 9 10 11 12 13 14 15 16 17 18 19 20 21 22 23 24 25 26 27 28 29 30 31 32 33 34 35 36 37 38 39 40 41 42 43 44 45 46 47 48 49 50
620
ASUS45 KCYS 302210
RWRWY

WYOMING REGIONAL WEATHER ROUNDUP
NATIONAL WEATHER SERVICE CHEYENNE WY
400 PM MDT SAT JUL 30 2016

NOTE:  "FAIR" INDICATES FEW OR NO CLOUDS BELOW 12,000 FEET
WITH NO SIGNIFICANT WEATHER AND/OR OBSTRUCTIONS TO VISIBILITY.

WYZ001-302300-
YELLOWSTONE NATIONAL PARK

CITY           SKY/WX    TMP DP  RH WIND       PRES   REMARKS
LK YELLOWSTONE   N/A     70  40  33 VRB5      30.20R
W YELLOWSTONE  NOT AVBL

$$
WYZ002>013-054>058-071-098>099-302300-
NORTHERN WYOMING

CITY           SKY/WX    TMP DP  RH WIND       PRES   REMARKS
JACKSON        SUNNY     79  43  27 S10       30.11F
CODY           FAIR      90  43  19 N13       29.87F
GREYBULL       FAIR      98  35  11 CALM      29.77F HX  93
WORLAND        FAIR      97  38  13 N10       29.79F HX  92
SHERIDAN       FAIR      99  45  15 N12G17    29.78F HX  95
BUFFALO        FAIR      94  39  14 N15G24    29.85F HX  90
GILLETTE       FAIR      93  45  19 S10G21    29.83F
HULETT         MOCLDY    88  45  22 SW5       29.88F
NEWCASTLE      FAIR      90  43  19 S7        29.91F

$$
WYZ014>020-022>026-101>103-302300-
CENTRAL WYOMING

CITY           SKY/WX    TMP DP  RH WIND       PRES   REMARKS
BIG PINEY      PTSUNNY   70  48  45 MISG      30.20F
PINEDALE       FAIR      75  37  25 W20G25    30.19F
DUBOIS         FAIR      75  37  25 SW36G43   30.12R
LANDER         FAIR      89  37  16 W26G37    29.94F
RIVERTON       FAIR      92  38  15 SW14      29.92F
CASPER         FAIR      96  34  11 W10G18    29.90F HX  91
DOUGLAS        FAIR      95  43  16 S7G17     29.91F HX  91

$$
WYZ021-027>030-104>119-302300-
SOUTHERN WYOMING

CITY           SKY/WX    TMP DP  RH WIND       PRES   REMARKS
EVANSTON       PTSUNNY   79  40  24 N15       30.17F
KEMMERER         N/A     81  36  19 NW15G21   30.20F
FORT BRIDGER   FAIR      84  37  18 N13G22    30.19S
ROCK SPRINGS   CLOUDY    80  37  21 W22G36    30.15R
DIXON          FAIR      81  40  23 NW3       30.12F
RAWLINS        PTSUNNY   87  29  12 SW18G26   30.07F
SARATOGA       FAIR      82  32  16 SW18G26   30.13F
LARAMIE        FAIR      86  29  12 VRB6G17   30.12F
CHEYENNE       FAIR      86  48  26 E10       30.05F
TORRINGTON     FAIR      90  59  35 SE18G24   29.90F
PINE BLUFFS    FAIR      88  45  22 MISG      30.01S

$$




USA.gov is the U.S. government's official web portal to all federal, state and local government web resources and services.